Regional Weather Roundup
Issued by NWS

Home | Current Version | Previous Version | Text Only | Print | Product List | Glossary On
Versions: 1 2 3 4 5 6 7 8 9 10 11 12 13 14 15 16 17 18 19 20 21 22 23 24 25 26 27 28 29 30 31 32 33 34 35 36 37 38 39 40 41 42 43 44 45 46 47 48 49 50
000
ASUS46 KSEW 210210
RWRWA

WASHINGTON REGIONAL WEATHER ROUNDUP
NATIONAL WEATHER SERVICE SEATTLE WA
600 PM PST SAT DEC 20 2014

NOTE:"FAIR" INDICATES FEW OR NO CLOUDS BELOW 12,000 FEET WITH NO
SIGNIFICANT WEATHER AND/OR OBSTRUCTIONS TO VISIBILITY.

WAZ505-507>509-210300-
SEATTLE, TACOMA, EVERETT, AND VICINITY

CITY           SKY/WX    TMP DP  RH WIND       PRES   REMARKS
EVERETT        CLOUDY    50  48  93 S17G28    29.42F
BOEING FIELD   LGT RAIN  55  50  83 S15       29.46S
RENTON         LGT RAIN  53  51  93 SE12      29.47R
SEATAC AIRPORT LGT RAIN  53  50  89 S16       29.47S FOG
JBLM-MCCHORD   LGT RAIN  54  53  99 S16G29    29.50S
PUYALLUP       NOT AVBL
JBLM-FT LEWIS  LGT RAIN  53  53  99 S9G16     29.51R
TACOMA NARROWS LGT RAIN  52  50  93 S24G33    29.48S FOG
$$

WAZ001-503-506-510-514-515-210300-
NORTH INTERIOR

CITY           SKY/WX    TMP DP  RH WIND       PRES   REMARKS
BELLINGHAM     LGT RAIN  51  47  86 SE20G28   29.34F FOG
FRIDAY HARBOR  LGT RAIN  49  48  97 SE15G24   29.37S
EASTSOUND      LGT RAIN  48  48 100 S16G22    29.32F
PORT ANGELES   LGT RAIN  48  46  93 CALM      29.36R
NAS WHIDBEY    RAIN      52  48  86 SE23G31   29.40R FOG
BURLINGTON     CLOUDY    52  48  87 S12G20    29.41S
$$

WAZ020-022-039-040-504-511-512-210300-
SOUTHWEST INTERIOR

CITY           SKY/WX    TMP DP  RH WIND       PRES   REMARKS
SHELTON        LGT RAIN  55  52  89 SW21G32   29.45S FOG
OLYMPIA        LGT RAIN  52  51  97 S13       29.51R FOG
CHEHALIS       LGT RAIN  54  54 100 S9        29.55R
KELSO          CLOUDY    52  48  87 S6        29.64S
VANCOUVER      LGT RAIN  55  52  89 S6        29.63S
SCAPPOOSE, OR  LGT RAIN  52  51  97 CALM      29.62R
PORTLAND, OR   LGT RAIN  56  54  93 S14       29.64R
$$

WAZ021-516-517-210300-
WASHINGTON COAST

CITY           SKY/WX    TMP DP  RH WIND       PRES   REMARKS
FORKS          LGT RAIN  55  54  96 SW21G29   29.42R FOG
HOQUIAM        LGT RAIN  55  54  96 SW29G39   29.51R FOG
ASTORIA, OR    LGT RAIN  56  54  93 SW22G32   29.59R
$$

WAZ019-023-024-040-518-519-210300-
CASCADE MOUNTAINS AND COLUMBIA GORGE

CITY           SKY/WX    TMP DP  RH WIND       PRES   REMARKS
STAMPEDE PASS  NOT AVBL
TROUTDALE, OR  LGT RAIN  57  54  89 SW17G25   29.63S
THE DALLES, OR LGT RAIN  43  41  93 CALM      29.63F
$$

WAZ026-027-041>044-520-521-210300-
EAST SLOPES

CITY           SKY/WX    TMP DP  RH WIND       PRES   REMARKS
OMAK           LGT RAIN  34  33  96 CALM      29.58F
WENATCHEE      LGT RAIN  35  34  96 W5        29.58F VSB 1/2
ELLENSBURG     LGT RAIN  41  38  89 CALM      29.55F FOG
YAKIMA         LGT RAIN  42  39  89 CALM      29.59F FOG
$$

WAZ028-034-035-210300-
COLUMBIA BASIN

CITY           SKY/WX    TMP DP  RH WIND       PRES   REMARKS
EPHRATA        LGT RAIN  42  41  96 CALM      29.56F
MOSES LAKE     CLOUDY    42  41  96 S3        29.58F
PASCO          LGT RAIN  51  44  77 S7        29.62F
HERMISTON, OR  CLOUDY    51  43  74 SW6       29.62F
$$

WAZ036>038-210300-
NORTHEAST WASHINGTON

CITY           SKY/WX    TMP DP  RH WIND       PRES   REMARKS
SPOKANE GEIGER LGT RAIN  40  39  97 SE14      29.61F
SPOKANE FELTS  LGT RAIN  43  39  86 E8        29.64F
FAIRCHILD AFB  LGT RAIN  40  40 100 SE13      29.60F
COEURDALENE,ID CLOUDY    39  36  87 S9        29.66F
DEER PARK      LGT RAIN  40  39  97 SE7       29.64F
$$

WAZ029>033-210300-
SOUTHEAST WASHINGTON

CITY           SKY/WX    TMP DP  RH WIND       PRES   REMARKS
PULLMAN        LGT RAIN  41  37  86 SE14      29.69F
LEWISTON, ID   RAIN      42  41  96 E9        29.71F
WALLA WALLA    LGT RAIN  52  43  71 S20       29.65F
PENDLETON, OR  LGT RAIN  48  41  76 S14       29.64F
$$



USA.gov is the U.S. government's official web portal to all federal, state and local government web resources and services.